TimeEST,TemperatureF,Dew PointF,Humidity,Sea Level PressureIn,VisibilityMPH,Wind Direction,Wind SpeedMPH,Gust SpeedMPH,PrecipitationIn,Events,Conditions,WindDirDegrees,DateUTC
12:53 AM,64.9,63.0,93,29.96,10.0,East,4.6,-,N/A,,Scattered Clouds,80,2012-12-08 05:53:00
1:53 AM,64.9,62.1,90,29.96,10.0,Calm,Calm,-,N/A,,Scattered Clouds,0,2012-12-08 06:53:00
2:53 AM,63.0,62.1,97,29.95,10.0,East,4.6,-,N/A,,Clear,90,2012-12-08 07:53:00
3:53 AM,63.0,62.1,97,29.96,10.0,East,3.5,-,N/A,,Clear,90,2012-12-08 08:53:00
4:53 AM,62.1,61.0,96,29.96,7.0,East,3.5,-,N/A,,Clear,100,2012-12-08 09:53:00
5:12 AM,62.6,62.6,100,29.96,7.0,East,3.5,-,N/A,,Scattered Clouds,100,2012-12-08 10:12:00
5:21 AM,62.6,62.6,100,29.96,6.0,East,3.5,-,N/A,,Mostly Cloudy,100,2012-12-08 10:21:00
5:29 AM,62.6,62.6,100,29.97,1.8,East,3.5,-,N/A,,Mostly Cloudy,100,2012-12-08 10:29:00
5:50 AM,62.6,62.6,100,29.97,0.5,East,3.5,-,N/A,Fog,Fog,100,2012-12-08 10:50:00
6:53 AM,63.0,63.0,100,29.99,0.2,East,3.5,-,N/A,Fog,Fog,90,2012-12-08 11:53:00
7:53 AM,64.0,64.0,100,30.01,0.2,East,3.5,-,N/A,Fog,Fog,100,2012-12-08 12:53:00
8:53 AM,66.9,66.0,97,30.03,0.5,ESE,4.6,-,N/A,Fog,Fog,110,2012-12-08 13:53:00
9:10 AM,66.2,66.2,100,30.03,2.0,ESE,5.8,-,N/A,,Overcast,110,2012-12-08 14:10:00
9:19 AM,68.0,68.0,100,30.03,5.0,ESE,5.8,-,N/A,,Overcast,120,2012-12-08 14:19:00
9:41 AM,69.8,69.8,100,30.03,10.0,SE,3.5,-,N/A,,Scattered Clouds,130,2012-12-08 14:41:00
9:53 AM,72.0,68.0,87,30.04,10.0,Variable,3.5,-,N/A,,Scattered Clouds,0,2012-12-08 14:53:00
10:53 AM,77.0,66.9,71,30.03,10.0,SE,5.8,-,0.01,,Scattered Clouds,140,2012-12-08 15:53:00
11:53 AM,77.0,66.0,69,30.01,10.0,WSW,4.6,-,N/A,,Clear,240,2012-12-08 16:53:00
12:53 PM,78.1,64.0,62,29.99,10.0,WSW,9.2,-,N/A,,Clear,240,2012-12-08 17:53:00
1:53 PM,78.1,64.9,64,29.97,10.0,WSW,9.2,-,N/A,,Clear,250,2012-12-08 18:53:00
2:53 PM,75.9,66.9,74,29.97,10.0,West,10.4,-,N/A,,Scattered Clouds,270,2012-12-08 19:53:00
3:53 PM,75.0,66.9,76,29.97,10.0,West,8.1,-,N/A,,Clear,280,2012-12-08 20:53:00
4:53 PM,73.9,66.0,76,29.98,10.0,WNW,6.9,-,N/A,,Clear,300,2012-12-08 21:53:00
5:53 PM,72.0,64.9,78,29.98,10.0,Calm,Calm,-,N/A,,Clear,0,2012-12-08 22:53:00
6:53 PM,70.0,66.0,87,30.00,10.0,North,3.5,-,N/A,,Clear,350,2012-12-08 23:53:00
7:53 PM,69.1,66.0,90,30.02,10.0,Calm,Calm,-,N/A,,Clear,0,2012-12-09 00:53:00
8:53 PM,70.0,66.9,90,30.04,10.0,NE,3.5,-,N/A,,Overcast,50,2012-12-09 01:53:00
9:53 PM,69.1,66.0,90,30.04,10.0,North,3.5,-,N/A,,Overcast,10,2012-12-09 02:53:00
10:53 PM,69.1,66.0,90,30.04,10.0,Calm,Calm,-,N/A,,Mostly Cloudy,0,2012-12-09 03:53:00
11:53 PM,66.9,64.9,93,30.04,10.0,Calm,Calm,-,N/A,,Clear,0,2012-12-09 04:53:00